Location: Seven Kings
(51.5667°N, 0.1000°E)
Time: 14:30:25
(UTC+00:00)

ATLAS 5 CENTAUR R/B - Pass Details

Date: 29 October 2020
Orbit: 531 x 1127 km, 63.4° (Epoch: 22 November)

Event Time Altitude Azimuth Distance (km) Brightness Sun altitude
Rises 18:07:52 0° 286° (WNW) 2,878 6.4 -14.6°
Reaches altitude 10° 18:10:28 10° 302° (WNW) 2,056 5.1 -15.0°
Maximum altitude 18:14:07 22° 354° (N) 1,521 3.6 -15.5°
Enters shadow 18:17:30 13° 39° (NE) 2,121 3.9 -16.0°
